SCP
0 0 0 0 0 0 0 0 0 0 1 1 0 0 0 0 1 1 1 1 0 0 0 0 0 0 0 0 0 0 0 0
0 0 0 0 0 0 0 0 0 0 0 0 0 0 0 0 0 0 1 1 0 0 0 0 0 0 0 0 0 0 0 0
0 0 0 0 0 0 0 0 0 0 0 0 0 0 0 0 0 0 0 0 0 0 0 1 0 0 0 0 0 0 0 0
0 0 0 0 0 0 0 0 0 0 0 0 0 0 0 0 0 0 0 0 0 0 0 0 0 0 0 0 0 0 0 0
0 0 0 0 0 0 0 0 0 0 0 0 0 0 0 0 0 0 0 0 0 0 0 0 0 0 0 0 0 0 0 0
0 0 0 0 0 0 0 0 0 0 0 0 -0 -0 -0 -0 0 0 0 0 0 0 0 0 0 0 0 0 0 0 0 0
0 0 0 0 0 0 0 0 0 0 0 0 0 0 0 0 0 0 0 0 0 0 0 0 0 0 0 0 0 0 0 0
0 0 0 0 0 0 0 0 0 0 0 0 0 0 0 0 0 0 0 0 0 0 0 0 0 0 0 0 0 0 0 0
0 0 0 0 0 0 0 0 0 0 0 0 0 0 0 0 0 0 0 0 0 0 0 0 0 0 0 0 0 0 0 0
0 0 0 0 0 0 0 0 0 0 0 0 0 0 0 0 0 0 0 0 0 0 0 0 0 0 0 0 0 0 0 0
0 0 0 0 0 0 0 0 0 0 0 0 0 0 0 0 0 0 0 0 0 0 0 0 0 0 0 0 0 0 0 0
0 0 0 0 0 0 0 0 0 0 0 0 0 0 0 0 0 0 0 0 0 0 0 0 0 0 0 0 0 0 0 0
0 0 0 0 0 0 0 0 0 0 -0 0 0 0 0 0 0 0 0 0 0 0 0 0 0 0 0 0 0 0 0 0
0 0 0 0 0 0 0 0 0 -0 0 0 0 0 0 0 0 0 0 0 0 0 0 0 0 0 0 0 0 0 0 0
0 0 0 0 0 0 0 0 0 0 0 0 0 0 0 0 0 0 0 0 0 0 0 0 0 0 0 0 0 0 0 0
0 0 0 0 0 0 0 0 0 0 0 0 0 0 0 0 0 0 0 0 0 0 0 0 0 0 0 0 0 0 0 0
0 0 0 0 0 0 0 0 0 0 0 0 0 0 0 0 0 0 0 0 0 0 0 0 0 0 0 -0 -0 0 0 0
0 0 0 0 0 0 0 0 0 0 0 0 0 0 0 0 0 0 0 0 0 0 0 0 0 0 0 -0 0 0 0 0
0 0 0 0 0 0 0 0 0 0 0 0 0 0 0 0 0 0 0 0 -0 0 0 0 0 0 0 0 -0 0 0 0
Wind_Speed_500mb
32 29 31 32 32 38 39 35 33 34 30 26 27 28 30 31 32 36 40 47 53 59 67 68 76 82 86 88 83 83 82 75
38 37 38 38 38 35 35 34 30 29 29 21 17 20 20 22 26 28 33 43 47 50 57 73 76 79 84 90 97 98 92 91
42 39 39 37 39 37 34 31 27 20 14 8 1 9 15 20 24 27 35 42 50 51 55 56 70 87 90 84 97 103 99 107
47 43 40 39 34 26 21 20 18 14 7 6 13 21 28 36 39 38 35 37 39 48 56 60 61 63 84 83 96 87 103 118
47 45 40 38 34 27 20 16 13 11 10 14 21 28 32 38 43 43 51 58 58 62 62 59 59 62 67 70 93 103 119 104
52 44 42 37 32 26 20 15 10 9 14 20 26 33 40 46 47 54 59 66 69 70 68 68 72 71 70 70 68 76 97 111
49 46 42 33 27 21 14 7 7 11 18 25 32 35 40 49 54 60 67 75 81 87 89 91 92 89 84 77 69 72 81 96
52 48 40 32 23 11 1 8 16 23 30 38 42 46 52 58 66 76 85 92 93 95 103 107 106 96 91 87 87 80 78 88
49 43 38 28 16 7 4 12 19 23 33 38 44 53 63 67 70 75 86 95 98 98 93 89 92 90 90 93 93 95 91 91
50 39 28 19 12 6 5 12 18 28 38 45 49 55 58 64 70 79 89 92 93 87 81 75 79 92 98 101 98 93 96 93
43 35 28 21 12 8 8 18 27 35 43 50 54 59 61 68 77 87 92 91 82 78 77 83 92 95 98 106 109 110 101 101
44 33 24 20 12 8 15 24 34 44 50 53 61 68 76 81 90 98 99 88 80 80 80 84 91 99 105 111 115 109 98 96
35 26 24 18 11 12 20 29 42 50 55 61 68 79 88 93 100 101 93 79 79 79 83 93 97 104 111 113 110 104 103 105
32 29 24 15 10 13 25 37 48 57 62 69 77 90 94 99 103 100 88 75 74 80 86 95 99 101 97 100 102 100 103 106
35 31 19 7 11 24 36 44 53 61 67 76 88 93 96 101 92 80 77 76 84 90 92 89 85 88 92 85 84 88 91 94
35 23 10 8 20 32 43 50 59 64 74 86 91 92 92 87 79 76 78 81 82 79 76 77 83 72 70 69 70 75 74 74
28 12 4 15 26 37 46 51 57 68 80 87 88 86 84 79 77 75 75 69 67 71 70 66 58 58 59 53 54 54 63 56
18 4 10 20 28 37 45 49 57 70 80 83 82 77 77 76 74 68 63 61 65 60 55 48 46 46 48 49 53 53 60 57
16 4 10 17 27 38 41 48 63 76 78 76 72 72 73 71 62 57 59 60 53 47 43 41 40 39 45 44 50 50 36 27
Wind_Direction_500mb
144 148 156 164 173 176 178 182 188 197 210 228 233 255 267 275 277 272 276 280 281 280 278 277 274 268 258 257 256 251 249 247
145 138 131 135 138 144 152 158 154 169 177 189 219 240 254 266 269 274 286 289 290 289 286 279 281 280 273 267 262 252 246 239
151 141 136 133 129 128 125 125 123 123 127 143 96 8 350 333 318 299 277 274 281 282 285 288 286 274 273 273 269 259 249 241
150 145 139 132 125 116 108 95 88 78 59 20 345 332 324 323 319 308 304 296 287 280 285 282 283 290 273 276 265 269 250 245
150 144 138 132 126 118 103 84 60 35 8 347 335 328 323 319 314 301 297 297 294 294 293 290 289 290 290 284 268 267 261 242
154 150 144 134 126 126 118 104 84 37 3 343 333 325 319 314 308 302 301 297 296 296 295 294 293 295 287 281 273 270 257 248
152 150 145 140 136 132 119 81 18 342 327 323 318 316 312 306 301 293 291 291 291 292 293 296 298 294 290 286 283 279 273 257
152 150 150 144 140 130 43 326 326 321 322 321 319 318 311 301 296 297 296 292 288 284 285 287 289 287 287 284 284 282 273 267
156 156 150 148 151 180 275 317 317 320 320 316 306 302 303 304 306 307 306 301 297 292 285 282 280 279 283 290 290 285 278 267
157 149 152 162 178 196 283 307 313 312 311 313 308 312 310 308 311 309 314 312 306 297 285 279 278 279 283 287 288 283 275 273
151 155 163 171 188 191 283 305 310 312 316 318 319 319 314 312 313 316 315 311 302 297 288 281 281 281 283 287 288 286 276 268
162 164 168 173 182 259 293 302 316 325 326 321 320 322 321 318 317 317 314 304 294 290 288 287 287 288 287 286 285 282 271 262
162 165 168 179 217 272 298 316 327 330 328 325 324 325 323 320 319 317 313 302 292 293 292 293 292 290 289 287 283 278 271 263
165 170 173 193 244 301 321 327 328 328 326 328 327 325 322 320 319 316 315 306 299 297 297 298 297 292 290 287 285 280 275 268
172 173 181 218 314 326 323 325 330 330 330 328 325 322 321 320 318 317 313 308 303 302 300 296 296 293 291 288 285 284 279 273
173 180 200 290 316 318 326 330 331 330 329 327 324 322 323 322 319 314 308 306 304 303 300 298 296 295 295 297 296 292 282 278
180 183 277 327 329 333 333 331 328 329 327 325 323 325 324 323 319 314 310 312 309 306 304 301 301 305 307 310 310 303 303 286
179 201 335 335 329 333 331 325 325 326 326 325 325 328 325 324 321 321 319 317 317 313 309 309 313 318 326 328 328 307 290 296
185 236 320 320 328 330 323 323 326 327 325 325 329 330 328 328 327 326 325 324 323 321 322 323 329 336 333 328 324 312 279 250
Wind_Speed_850mb
32 29 31 32 32 38 39 35 33 34 30 26 27 28 30 31 32 36 40 47 53 59 67 68 76 82 86 88 83 83 82 75
38 37 38 38 38 35 35 34 30 29 29 21 17 20 20 22 26 28 33 43 47 50 57 73 76 79 84 90 97 98 92 91
42 39 39 37 39 37 34 31 27 20 14 8 1 9 15 20 24 27 35 42 50 51 55 56 70 87 90 84 97 103 99 107
47 43 40 39 34 26 21 20 18 14 7 6 13 21 28 36 39 38 35 37 39 48 56 60 61 63 84 83 96 87 103 118
47 45 40 38 34 27 20 16 13 11 10 14 21 28 32 38 43 43 51 58 58 62 62 59 59 62 67 70 93 103 119 104
52 44 42 37 32 26 20 15 10 9 14 20 26 33 40 46 47 54 59 66 69 70 68 68 72 71 70 70 68 76 97 111
49 46 42 33 27 21 14 7 7 11 18 25 32 35 40 49 54 60 67 75 81 87 89 91 92 89 84 77 69 72 81 96
52 48 40 32 23 11 1 8 16 23 30 38 42 46 52 58 66 76 85 92 93 95 103 107 106 96 91 87 87 80 78 88
49 43 38 28 16 7 4 12 19 23 33 38 44 53 63 67 70 75 86 95 98 98 93 89 92 90 90 93 93 95 91 91
50 39 28 19 12 6 5 12 18 28 38 45 49 55 58 64 70 79 89 92 93 87 81 75 79 92 98 101 98 93 96 93
43 35 28 21 12 8 8 18 27 35 43 50 54 59 61 68 77 87 92 91 82 78 77 83 92 95 98 106 109 110 101 101
44 33 24 20 12 8 15 24 34 44 50 53 61 68 76 81 90 98 99 88 80 80 80 84 91 99 105 111 115 109 98 96
35 26 24 18 11 12 20 29 42 50 55 61 68 79 88 93 100 101 93 79 79 79 83 93 97 104 111 113 110 104 103 105
32 29 24 15 10 13 25 37 48 57 62 69 77 90 94 99 103 100 88 75 74 80 86 95 99 101 97 100 102 100 103 106
35 31 19 7 11 24 36 44 53 61 67 76 88 93 96 101 92 80 77 76 84 90 92 89 85 88 92 85 84 88 91 94
35 23 10 8 20 32 43 50 59 64 74 86 91 92 92 87 79 76 78 81 82 79 76 77 83 72 70 69 70 75 74 74
28 12 4 15 26 37 46 51 57 68 80 87 88 86 84 79 77 75 75 69 67 71 70 66 58 58 59 53 54 54 63 56
18 4 10 20 28 37 45 49 57 70 80 83 82 77 77 76 74 68 63 61 65 60 55 48 46 46 48 49 53 53 60 57
16 4 10 17 27 38 41 48 63 76 78 76 72 72 73 71 62 57 59 60 53 47 43 41 40 39 45 44 50 50 36 27
Wind_Direction_850mb
144 148 156 164 173 176 178 182 188 197 210 228 233 255 267 275 277 272 276 280 281 280 278 277 274 268 258 257 256 251 249 247
145 138 131 135 138 144 152 158 154 169 177 189 219 240 254 266 269 274 286 289 290 289 286 279 281 280 273 267 262 252 246 239
151 141 136 133 129 128 125 125 123 123 127 143 96 8 350 333 318 299 277 274 281 282 285 288 286 274 273 273 269 259 249 241
150 145 139 132 125 116 108 95 88 78 59 20 345 332 324 323 319 308 304 296 287 280 285 282 283 290 273 276 265 269 250 245
150 144 138 132 126 118 103 84 60 35 8 347 335 328 323 319 314 301 297 297 294 294 293 290 289 290 290 284 268 267 261 242
154 150 144 134 126 126 118 104 84 37 3 343 333 325 319 314 308 302 301 297 296 296 295 294 293 295 287 281 273 270 257 248
152 150 145 140 136 132 119 81 18 342 327 323 318 316 312 306 301 293 291 291 291 292 293 296 298 294 290 286 283 279 273 257
152 150 150 144 140 130 43 326 326 321 322 321 319 318 311 301 296 297 296 292 288 284 285 287 289 287 287 284 284 282 273 267
156 156 150 148 151 180 275 317 317 320 320 316 306 302 303 304 306 307 306 301 297 292 285 282 280 279 283 290 290 285 278 267
157 149 152 162 178 196 283 307 313 312 311 313 308 312 310 308 311 309 314 312 306 297 285 279 278 279 283 287 288 283 275 273
151 155 163 171 188 191 283 305 310 312 316 318 319 319 314 312 313 316 315 311 302 297 288 281 281 281 283 287 288 286 276 268
162 164 168 173 182 259 293 302 316 325 326 321 320 322 321 318 317 317 314 304 294 290 288 287 287 288 287 286 285 282 271 262
162 165 168 179 217 272 298 316 327 330 328 325 324 325 323 320 319 317 313 302 292 293 292 293 292 290 289 287 283 278 271 263
165 170 173 193 244 301 321 327 328 328 326 328 327 325 322 320 319 316 315 306 299 297 297 298 297 292 290 287 285 280 275 268
172 173 181 218 314 326 323 325 330 330 330 328 325 322 321 320 318 317 313 308 303 302 300 296 296 293 291 288 285 284 279 273
173 180 200 290 316 318 326 330 331 330 329 327 324 322 323 322 319 314 308 306 304 303 300 298 296 295 295 297 296 292 282 278
180 183 277 327 329 333 333 331 328 329 327 325 323 325 324 323 319 314 310 312 309 306 304 301 301 305 307 310 310 303 303 286
179 201 335 335 329 333 331 325 325 326 326 325 325 328 325 324 321 321 319 317 317 313 309 309 313 318 326 328 328 307 290 296
185 236 320 320 328 330 323 323 326 327 325 325 329 330 328 328 327 326 325 324 323 321 322 323 329 336 333 328 324 312 279 250